User: anonymous   Login
Location: Unspecified
(0.0000°N, 0.0000°E)
Time: 07:55:14
(UTC+00:00)
Language:

P76-5 - Orbit

View from above orbital plane
View from above orbital plane
View from above satellite
View from above satellite

Ground track
Ground track

The orbit data is extracted from the following two-line orbital elements,

1  8860U 76047A   17328.42657564 +.00000026 +00000-0 +83544-4 0  9992
2  8860 099.6864 077.9031 0042313 041.1007 359.8597 13.67563605068933
Epoch (UTC): 24 November 2017 10:14:16
Eccentricity: 0.0042313
inclination: 99.6864°
perigee height: 977 km
apogee height: 1039 km
right ascension of ascending node: 77.9031°
argument of perigee: 41.1007°
revolutions per day: 13.67563605
mean anomaly at epoch: 359.8597°
orbit number at epoch: 6893

The dashed part of the orbit path shows where the satellite is in the earth's shadow,  

DLR